| time (UTC) | temp C | wind direction | speed KPH | gust KPH | rain 1hr cm | rain 24hr cm | rain mn cm | humidity % | barometer mb |
| 20260503040106 | 15 | 285 | 6.4 | 11.3 | 0.00 | 0.00 | 0.00 | 86 | 1010.7 |
| 20260503035344 | 15 | 325 | 9.7 | 11.3 | 0.00 | 0.00 | 0.00 | 86 | 1010.5 |
| 20260503035108 | 15 | 325 | 6.4 | 11.3 | 0.00 | 0.00 | 0.00 | 86 | 1010.3 |
| 20260503034345 | 15 | 309 | 6.4 | 12.9 | 0.00 | 0.00 | 0.00 | 86 | 1010.4 |
| 20260503034107 | 15 | 14 | 9.7 | 12.9 | 0.00 | 0.00 | 0.00 | 86 | 1010.3 |
| 20260503033600 | 15 | 325 | 8.0 | 12.9 | 0.00 | 0.00 | 0.00 | 86 | 1010.3 |
| 20260503032843 | 15 | 320 | 11.3 | 12.9 | 0.00 | 0.00 | 0.00 | 86 | 1010.3 |
| 20260503032345 | 15 | 351 | 6.4 | 14.5 | 0.00 | 0.00 | 0.00 | 85 | 1010.2 |
| 20260503031843 | 15 | 327 | 8.0 | 19.3 | 0.00 | 0.00 | 0.00 | 85 | 1010.1 |
| 20260503031343 | 15 | 348 | 14.5 | 19.3 | 0.00 | 0.00 | 0.00 | 85 | 1009.9 |
| 20260503030842 | 15 | 277 | 11.3 | 16.1 | 0.00 | 0.00 | 0.00 | 85 | 1009.8 |
| 20260503030344 | 15 | 339 | 8.0 | 19.3 | 0.00 | 0.00 | 0.00 | 85 | 1009.8 |
| 20260503025844 | 15 | 308 | 11.3 | 19.3 | 0.00 | 0.00 | 0.00 | 85 | 1009.9 |
| 20260503025342 | 15 | 335 | 14.5 | 16.1 | 0.00 | 0.00 | 0.00 | 85 | 1009.8 |
| 20260503024842 | 15 | 330 | 9.7 | 16.1 | 0.00 | 0.00 | 0.00 | 86 | 1009.8 |
| 20260503024343 | 15 | 277 | 8.0 | 12.9 | 0.00 | 0.00 | 0.00 | 86 | 1010.0 |
| 20260503023842 | 15 | 6 | 3.2 | 16.1 | 0.00 | 0.00 | 0.00 | 86 | 1010.0 |
| 20260503023343 | 15 | 258 | 8.0 | 16.1 | 0.00 | 0.00 | 0.00 | 85 | 1009.9 |
| 20260503023104 | 16 | 316 | 3.2 | 9.7 | 0.00 | 0.00 | 0.00 | 85 | 1009.9 |
| 20260503022344 | 16 | 262 | 3.2 | 14.5 | 0.00 | 0.00 | 0.00 | 85 | 1009.9 |
| 20260503022105 | 16 | 211 | 1.6 | 14.5 | 0.00 | 0.00 | 0.00 | 85 | 1010.0 |
| 20260503021341 | 16 | 277 | 6.4 | 14.5 | 0.00 | 0.00 | 0.00 | 85 | 1010.0 |
| 20260503020841 | 16 | 294 | 11.3 | 14.5 | 0.00 | 0.00 | 0.00 | 85 | 1009.8 |
| 20260503020343 | 16 | 291 | 8.0 | 14.5 | 0.00 | 0.00 | 0.00 | 84 | 1010.0 |
| 20260503015842 | 16 | 300 | 6.4 | 20.9 | 0.00 | 0.00 | 0.00 | 84 | 1009.9 |
| 20260503015340 | 16 | 340 | 12.9 | 20.9 | 0.00 | 0.00 | 0.00 | 83 | 1009.9 |
| 20260503014841 | 16 | 289 | 6.4 | 14.5 | 0.00 | 0.00 | 0.00 | 83 | 1009.9 |
| 20260503013841 | 16 | 311 | 6.4 | 14.5 | 0.00 | 0.00 | 0.00 | 83 | 1009.8 |
| 20260503013340 | 16 | 317 | 6.4 | 14.5 | 0.00 | 0.00 | 0.00 | 83 | 1009.7 |
| 20260503012840 | 17 | 339 | 8.0 | 14.5 | 0.00 | 0.00 | 0.00 | 83 | 1009.7 |
| 20260503012343 | 17 | 260 | 4.8 | 14.5 | 0.00 | 0.00 | 0.00 | 82 | 1009.9 |
| 20260503011842 | 17 | 286 | 3.2 | 16.1 | 0.00 | 0.00 | 0.00 | 81 | 1009.8 |
| 20260503011340 | 17 | 267 | 9.7 | 16.1 | 0.00 | 0.00 | 0.00 | 81 | 1009.8 |
| 20260503010840 | 17 | 304 | 6.4 | 14.5 | 0.00 | 0.00 | 0.00 | 81 | 1009.7 |
| 20260503010341 | 17 | 296 | 6.4 | 14.5 | 0.00 | 0.00 | 0.00 | 81 | 1009.5 |
| 20260503005841 | 17 | 329 | 6.4 | 14.5 | 0.00 | 0.00 | 0.00 | 80 | 1009.6 |
| 20260503005339 | 17 | 278 | 3.2 | 14.5 | 0.00 | 0.00 | 0.00 | 81 | 1009.7 |
| 20260503005100 | 17 | 259 | 6.4 | 14.5 | 0.00 | 0.00 | 0.00 | 80 | 1009.8 |
| 20260503004340 | 17 | 258 | 8.0 | 14.5 | 0.00 | 0.00 | 0.00 | 80 | 1009.7 |
| 20260503003841 | 17 | 271 | 8.0 | 16.1 | 0.00 | 0.00 | 0.00 | 79 | 1009.8 |
| 20260503003339 | 17 | 291 | 6.4 | 16.1 | 0.00 | 0.00 | 0.00 | 80 | 1009.8 |
| 20260503003058 | 18 | 250 | 1.6 | 20.9 | 0.00 | 0.00 | 0.00 | 79 | 1009.9 |
| 20260503002338 | 18 | 3 | 3.2 | 20.9 | 0.00 | 0.00 | 0.00 | 78 | 1009.7 |
| 20260503002109 | 18 | 283 | 3.2 | 19.3 | 0.00 | 0.00 | 0.00 | 78 | 1009.7 |
| 20260503001604 | 18 | 270 | 3.2 | 19.3 | 0.00 | 0.00 | 0.00 | 78 | 1009.6 |
| 20260503000838 | 18 | 260 | 9.7 | 19.3 | 0.00 | 0.00 | 0.00 | 77 | 1009.8 |
| 20260503000604 | 18 | 252 | 6.4 | 16.1 | 0.00 | 0.00 | 0.00 | 77 | 1009.8 |
| 20260503000105 | 18 | 352 | 9.7 | 16.1 | 0.00 | 0.00 | 0.00 | 77 | 1009.7 |
| 20260502235338 | 18 | 267 | 9.7 | 19.3 | 0.00 | 0.00 | 0.00 | 76 | 1009.7 |
| 20260502235108 | 18 | 257 | 4.8 | 19.3 | 0.00 | 0.00 | 0.00 | 76 | 1009.7 |
| 20260502234338 | 18 | 270 | 6.4 | 19.3 | 0.00 | 0.00 | 0.00 | 75 | 1009.8 |
| 20260502233840 | 18 | 271 | 6.4 | 20.9 | 0.00 | 0.00 | 0.00 | 76 | 1009.8 |
| 20260502233339 | 18 | 321 | 12.9 | 20.9 | 0.00 | 0.00 | 0.00 | 77 | 1009.9 |
| 20260502232837 | 18 | 261 | 12.9 | 22.5 | 0.00 | 0.00 | 0.00 | 76 | 1009.9 |
| 20260502232337 | 18 | 277 | 8.0 | 22.5 | 0.00 | 0.00 | 0.00 | 76 | 1009.8 |
| 20260502231838 | 18 | 4 | 12.9 | 20.9 | 0.00 | 0.00 | 0.00 | 76 | 1009.8 |
| 20260502231338 | 18 | 263 | 4.8 | 20.9 | 0.00 | 0.00 | 0.00 | 75 | 1010.0 |
| 20260502230837 | 18 | 342 | 4.8 | 27.4 | 0.00 | 0.00 | 0.00 | 77 | 1009.8 |
| 20260502230337 | 18 | 262 | 6.4 | 27.4 | 0.00 | 0.00 | 0.00 | 78 | 1009.8 |
| 20260502225339 | 18 | 348 | 14.5 | 24.1 | 0.00 | 0.00 | 0.00 | 79 | 1009.8 |
| 20260502224837 | 18 | 311 | 8.0 | 20.9 | 0.00 | 0.00 | 0.00 | 78 | 1010.0 |
| 20260502224555 | 18 | 296 | 9.7 | 32.2 | 0.00 | 0.00 | 0.00 | 76 | 1010.0 |
| 20260502223838 | 18 | 336 | 17.7 | 32.2 | 0.00 | 0.00 | 0.00 | 78 | 1010.1 |
| 20260502223337 | 18 | 263 | 6.4 | 24.1 | 0.00 | 0.00 | 0.00 | 79 | 1010.3 |
| 20260502222836 | 18 | 314 | 8.0 | 20.9 | 0.00 | 0.00 | 0.00 | 77 | 1010.4 |
| 20260502222336 | 19 | 260 | 14.5 | 20.9 | 0.00 | 0.00 | 0.00 | 77 | 1010.5 |
| 20260502221838 | 19 | 351 | 9.7 | 20.9 | 0.00 | 0.00 | 0.00 | 77 | 1010.6 |
| 20260502221337 | 19 | 326 | 8.0 | 20.9 | 0.00 | 0.00 | 0.00 | 77 | 1010.7 |
| 20260502220835 | 19 | 331 | 9.7 | 20.9 | 0.00 | 0.00 | 0.00 | 77 | 1010.8 |
| 20260502220335 | 19 | 311 | 9.7 | 20.9 | 0.00 | 0.00 | 0.00 | 77 | 1010.9 |
| 20260502215836 | 19 | 330 | 9.7 | 20.9 | 0.00 | 0.00 | 0.00 | 76 | 1010.9 |
| 20260502215336 | 19 | 264 | 1.6 | 19.3 | 0.00 | 0.00 | 0.00 | 75 | 1010.9 |
| 20260502214836 | 19 | 281 | 12.9 | 19.3 | 0.00 | 0.00 | 0.00 | 75 | 1010.9 |
| 20260502214335 | 19 | 269 | 9.7 | 19.3 | 0.00 | 0.00 | 0.00 | 75 | 1011.0 |
| 20260502213836 | 19 | 320 | 4.8 | 19.3 | 0.00 | 0.00 | 0.00 | 76 | 1011.0 |
| 20260502213337 | 19 | 353 | 9.7 | 19.3 | 0.00 | 0.00 | 0.00 | 77 | 1011.2 |
| 20260502212836 | 19 | 284 | 8.0 | 22.5 | 0.00 | 0.00 | 0.00 | 77 | 1011.2 |
| 20260502212334 | 19 | 259 | 6.4 | 22.5 | 0.00 | 0.00 | 0.00 | 76 | 1011.4 |
| 20260502211836 | 19 | 252 | 12.9 | 19.3 | 0.00 | 0.00 | 0.00 | 75 | 1011.4 |
| 20260502211336 | 18 | 340 | 11.3 | 16.1 | 0.00 | 0.00 | 0.00 | 77 | 1011.4 |
| 20260502211058 | 18 | 286 | 6.4 | 22.5 | 0.00 | 0.00 | 0.00 | 77 | 1011.4 |
| 20260502210336 | 18 | 276 | 8.0 | 22.5 | 0.00 | 0.00 | 0.00 | 79 | 1011.3 |
| 20260502205834 | 18 | 267 | 12.9 | 22.5 | 0.00 | 0.00 | 0.00 | 76 | 1011.5 |
| 20260502205554 | 18 | 289 | 9.7 | 22.5 | 0.00 | 0.00 | 0.00 | 77 | 1011.3 |
| 20260502204835 | 18 | 310 | 8.0 | 24.1 | 0.00 | 0.00 | 0.00 | 78 | 1011.1 |
| 20260502204335 | 18 | 243 | 8.0 | 24.1 | 0.00 | 0.00 | 0.00 | 77 | 1011.3 |
| 20260502203835 | 19 | 244 | 6.4 | 20.9 | 0.00 | 0.00 | 0.00 | 78 | 1011.3 |
| 20260502203336 | 19 | 299 | 6.4 | 22.5 | 0.00 | 0.00 | 0.00 | 79 | 1011.3 |
| 20260502202836 | 19 | 247 | 12.9 | 27.4 | 0.00 | 0.00 | 0.00 | 79 | 1011.3 |
| 20260502202334 | 19 | 332 | 6.4 | 27.4 | 0.00 | 0.00 | 0.00 | 79 | 1011.4 |
| 20260502202056 | 19 | 265 | 9.7 | 22.5 | 0.00 | 0.00 | 0.00 | 77 | 1011.4 |
| 20260502201335 | 18 | 282 | 11.3 | 22.5 | 0.00 | 0.00 | 0.00 | 75 | 1011.2 |
| 20260502200835 | 18 | 255 | 12.9 | 16.1 | 0.00 | 0.00 | 0.00 | 76 | 1011.2 |
| 20260502200333 | 18 | 261 | 9.7 | 22.5 | 0.00 | 0.00 | 0.00 | 77 | 1011.1 |
| 20260502195833 | 18 | 238 | 6.4 | 22.5 | 0.00 | 0.00 | 0.00 | 79 | 1011.2 |
| 20260502195334 | 18 | 278 | 11.3 | 14.5 | 0.00 | 0.00 | 0.00 | 78 | 1011.5 |
| 20260502194835 | 18 | 359 | 8.0 | 20.9 | 0.00 | 0.00 | 0.00 | 79 | 1011.5 |
| 20260502194333 | 18 | 347 | 11.3 | 20.9 | 0.00 | 0.00 | 0.00 | 81 | 1011.8 |
| 20260502193833 | 18 | 299 | 9.7 | 20.9 | 0.00 | 0.00 | 0.00 | 78 | 1011.7 |
| 20260502193334 | 18 | 356 | 12.9 | 22.5 | 0.00 | 0.00 | 0.00 | 80 | 1011.7 |
| 20260502192834 | 18 | 352 | 12.9 | 22.5 | 0.00 | 0.00 | 0.00 | 80 | 1011.8 |
| 20260502192332 | 18 | 283 | 9.7 | 19.3 | 0.00 | 0.00 | 0.00 | 78 | 1011.8 |
| 20260502191832 | 18 | 295 | 9.7 | 19.3 | 0.00 | 0.00 | 0.00 | 79 | 1011.8 |
| 20260502191333 | 18 | 305 | 9.7 | 19.3 | 0.00 | 0.00 | 0.00 | 80 | 1011.9 |
| 20260502190834 | 18 | 267 | 6.4 | 20.9 | 0.00 | 0.00 | 0.00 | 80 | 1012.0 |
| 20260502190331 | 18 | 350 | 11.3 | 20.9 | 0.00 | 0.00 | 0.00 | 80 | 1012.0 |
| 20260502185831 | 18 | 330 | 11.3 | 19.3 | 0.00 | 0.00 | 0.00 | 80 | 1012.1 |
| 20260502185333 | 18 | 349 | 12.9 | 19.3 | 0.00 | 0.00 | 0.00 | 82 | 1012.2 |
| 20260502184833 | 18 | 329 | 9.7 | 16.1 | 0.00 | 0.00 | 0.00 | 81 | 1012.4 |
| 20260502184331 | 18 | 322 | 8.0 | 14.5 | 0.00 | 0.00 | 0.00 | 81 | 1012.5 |
| 20260502183831 | 18 | 280 | 1.6 | 12.9 | 0.00 | 0.00 | 0.00 | 80 | 1012.4 |
| 20260502183332 | 18 | 285 | 3.2 | 14.5 | 0.00 | 0.00 | 0.00 | 82 | 1012.4 |
| 20260502183058 | 18 | 253 | 6.4 | 14.5 | 0.00 | 0.00 | 0.00 | 81 | 1012.5 |
| 20260502182331 | 18 | 299 | 1.6 | 12.9 | 0.00 | 0.00 | 0.00 | 82 | 1012.6 |
| 20260502181831 | 18 | 311 | 6.4 | 12.9 | 0.00 | 0.00 | 0.00 | 81 | 1012.7 |
| 20260502181331 | 18 | 301 | 6.4 | 11.3 | 0.00 | 0.00 | 0.00 | 80 | 1012.8 |
| 20260502180831 | 17 | 282 | 3.2 | 14.5 | 0.00 | 0.00 | 0.00 | 80 | 1012.8 |
| 20260502180331 | 17 | 2 | 8.0 | 14.5 | 0.00 | 0.00 | 0.00 | 80 | 1012.9 |
| 20260502170331 | 16 | 274 | 3.2 | 12.9 | 0.00 | 0.00 | 0.00 | 87 | 1013.2 |
| 20260502164330 | 16 | 274 | 0.0 | 11.3 | 0.00 | 0.00 | 0.00 | 84 | 1013.4 |
| 20260502163831 | 16 | 21 | 8.0 | 12.9 | 0.00 | 0.00 | 0.00 | 85 | 1013.5 |
| 20260502163328 | 16 | 348 | 8.0 | 16.1 | 0.00 | 0.00 | 0.00 | 85 | 1013.4 |
| 20260502162829 | 16 | 349 | 11.3 | 16.1 | 0.00 | 0.00 | 0.00 | 85 | 1013.4 |
| 20260502162330 | 16 | 25 | 9.7 | 16.1 | 0.00 | 0.00 | 0.00 | 86 | 1013.2 |
| 20260502161830 | 16 | 2 | 14.5 | 16.1 | 0.00 | 0.00 | 0.00 | 86 | 1013.2 |
| 20260502161329 | 16 | 34 | 8.0 | 12.9 | 0.00 | 0.00 | 0.00 | 86 | 1013.3 |
| 20260502160830 | 16 | 25 | 1.6 | 14.5 | 0.00 | 0.00 | 0.00 | 86 | 1013.3 |
| 20260502160330 | 16 | 12 | 8.0 | 14.5 | 0.00 | 0.00 | 0.00 | 86 | 1013.3 |
| 20260502152328 | 16 | 331 | 4.8 | 11.3 | 0.00 | 0.00 | 0.00 | 87 | 1013.2 |
| 20260502151828 | 16 | 49 | 3.2 | 11.3 | 0.00 | 0.00 | 0.00 | 87 | 1013.2 |
| 20260502151327 | 16 | 347 | 4.8 | 11.3 | 0.00 | 0.00 | 0.00 | 87 | 1013.1 |
| 20260502150827 | 16 | 354 | 1.6 | 11.3 | 0.00 | 0.00 | 0.00 | 88 | 1013.1 |
| 20260502150328 | 16 | 343 | 8.0 | 12.9 | 0.00 | 0.00 | 0.00 | 88 | 1013.0 |
| 20260502130554 | 15 | 312 | 4.8 | 8.0 | 0.00 | 0.00 | 0.00 | 89 | 1012.3 |
| 20260502122823 | 15 | 267 | 3.2 | 4.8 | 0.00 | 0.00 | 0.00 | 88 | 1012.2 |
| 20260502122324 | 15 | 263 | 0.0 | 4.8 | 0.00 | 0.00 | 0.00 | 88 | 1012.2 |
| 20260502121824 | 15 | 266 | 0.0 | 1.6 | 0.00 | 0.00 | 0.00 | 88 | 1012.3 |
| 20260502121324 | 15 | 260 | 0.0 | 1.6 | 0.00 | 0.00 | 0.00 | 88 | 1012.1 |
| 20260502120824 | 15 | 252 | 0.0 | 4.8 | 0.00 | 0.00 | 0.00 | 88 | 1012.2 |
| 20260502120323 | 15 | 283 | 3.2 | 4.8 | 0.00 | 0.00 | 0.00 | 88 | 1012.1 |
| 20260502115824 | 15 | 263 | 0.0 | 4.8 | 0.00 | 0.00 | 0.00 | 88 | 1012.0 |
| 20260502115324 | 16 | 266 | 0.0 | 3.2 | 0.00 | 0.00 | 0.00 | 88 | 1012.0 |
| 20260502114824 | 16 | 249 | 1.6 | 3.2 | 0.00 | 0.00 | 0.00 | 88 | 1012.0 |
| 20260502114323 | 16 | 260 | 1.6 | 3.2 | 0.00 | 0.00 | 0.00 | 88 | 1011.9 |
| 20260502113824 | 16 | 270 | 0.0 | 4.8 | 0.00 | 0.00 | 0.00 | 88 | 1011.9 |
| 20260502113546 | 16 | 284 | 3.2 | 8.0 | 0.00 | 0.00 | 0.00 | 88 | 1011.9 |
| 20260502112822 | 16 | 271 | 3.2 | 8.0 | 0.00 | 0.00 | 0.00 | 88 | 1011.9 |
| 20260502112322 | 16 | 284 | 3.2 | 8.0 | 0.00 | 0.00 | 0.00 | 87 | 1011.8 |
| 20260502111824 | 16 | 299 | 6.4 | 8.0 | 0.00 | 0.00 | 0.00 | 87 | 1011.9 |
| 20260502111323 | 16 | 229 | 1.6 | 4.8 | 0.00 | 0.00 | 0.00 | 87 | 1011.9 |
| 20260502111043 | 16 | 225 | 3.2 | 3.2 | 0.00 | 0.00 | 0.00 | 87 | 1011.9 |
| 20260502110322 | 16 | 278 | 0.0 | 1.6 | 0.00 | 0.00 | 0.00 | 86 | 1011.9 |
| 20260502105823 | 16 | 247 | 0.0 | 3.2 | 0.00 | 0.00 | 0.00 | 86 | 1011.9 |
| 20260502105322 | 16 | 261 | 0.0 | 3.2 | 0.00 | 0.00 | 0.00 | 86 | 1011.8 |
| 20260502104821 | 16 | 250 | 0.0 | 4.8 | 0.00 | 0.00 | 0.00 | 86 | 1011.8 |
| 20260502104322 | 16 | 224 | 3.2 | 8.0 | 0.00 | 0.00 | 0.00 | 86 | 1011.9 |
| 20260502103822 | 16 | 236 | 4.8 | 8.0 | 0.00 | 0.00 | 0.00 | 85 | 1011.9 |
| 20260502103323 | 16 | 208 | 4.8 | 9.7 | 0.00 | 0.00 | 0.00 | 85 | 1011.8 |
| 20260502102821 | 16 | 229 | 3.2 | 9.7 | 0.00 | 0.00 | 0.00 | 86 | 1011.7 |
| 20260502102321 | 16 | 254 | 1.6 | 3.2 | 0.00 | 0.00 | 0.00 | 85 | 1011.8 |
| 20260502102042 | 16 | 254 | 0.0 | 8.0 | 0.00 | 0.00 | 0.00 | 85 | 1011.7 |
| 20260502101547 | 16 | 240 | 1.6 | 8.0 | 0.00 | 0.00 | 0.00 | 85 | 1011.9 |
| 20260502100820 | 16 | 251 | 6.4 | 8.0 | 0.00 | 0.00 | 0.00 | 85 | 1011.8 |
| 20260502091302 | 16 | 244 | 0.0 | 1.6 | 0.00 | 0.00 | 0.00 | 84 | 1011.8 |
| 20260502090541 | 16 | 251 | 0.0 | 3.2 | 0.00 | 0.00 | 0.00 | 84 | 1011.9 |
| 20260502071039 | 16 | 265 | 1.6 | 9.7 | 0.00 | 0.00 | 0.00 | 84 | 1012.6 |
| 20260502070539 | 16 | 318 | 4.8 | 9.7 | 0.00 | 0.00 | 0.00 | 84 | 1012.6 |
| 20260502070038 | 16 | 318 | 3.2 | 8.0 | 0.00 | 0.00 | 0.00 | 84 | 1012.5 |
| 20260502065758 | 16 | 272 | 3.2 | 8.0 | 0.00 | 0.00 | 0.00 | 84 | 1012.5 |
| 20260502065038 | 16 | 268 | 1.6 | 8.0 | 0.00 | 0.00 | 0.00 | 84 | 1012.5 |
| 20260502064538 | 16 | 295 | 1.6 | 9.7 | 0.00 | 0.00 | 0.00 | 84 | 1012.4 |
| 20260502064038 | 16 | 316 | 3.2 | 9.7 | 0.00 | 0.00 | 0.00 | 84 | 1012.4 |
| 20260502063537 | 16 | 326 | 6.4 | 8.0 | 0.00 | 0.00 | 0.00 | 84 | 1012.5 |
| 20260502063038 | 16 | 305 | 3.2 | 8.0 | 0.00 | 0.00 | 0.00 | 84 | 1012.5 |
| 20260502062538 | 16 | 2 | 1.6 | 9.7 | 0.00 | 0.00 | 0.00 | 84 | 1012.4 |
| 20260502062037 | 16 | 18 | 1.6 | 11.3 | 0.00 | 0.00 | 0.00 | 84 | 1012.4 |
| 20260502061537 | 16 | 344 | 8.0 | 11.3 | 0.00 | 0.00 | 0.00 | 84 | 1012.4 |
| 20260502061039 | 16 | 334 | 8.0 | 11.3 | 0.00 | 0.00 | 0.00 | 84 | 1012.4 |
| 20260502060537 | 16 | 341 | 8.0 | 11.3 | 0.00 | 0.00 | 0.00 | 84 | 1012.4 |
| 20260502060304 | 16 | 348 | 1.6 | 8.0 | 0.00 | 0.00 | 0.00 | 84 | 1012.5 |
| 20260502055536 | 16 | 3 | 4.8 | 8.0 | 0.00 | 0.00 | 0.00 | 84 | 1012.5 |
| 20260502055037 | 16 | 288 | 0.0 | 8.0 | 0.00 | 0.00 | 0.00 | 84 | 1012.6 |
| 20260502054538 | 16 | 264 | 0.0 | 8.0 | 0.00 | 0.00 | 0.00 | 84 | 1012.5 |
| 20260502054036 | 16 | 319 | 3.2 | 8.0 | 0.00 | 0.00 | 0.00 | 84 | 1012.6 |
| 20260502053537 | 16 | 320 | 4.8 | 9.7 | 0.00 | 0.00 | 0.00 | 84 | 1012.6 |
| 20260502053035 | 16 | 313 | 3.2 | 9.7 | 0.00 | 0.00 | 0.00 | 84 | 1012.6 |
| 20260502052537 | 16 | 326 | 6.4 | 9.7 | 0.00 | 0.00 | 0.00 | 84 | 1012.5 |
| 20260502052037 | 16 | 350 | 6.4 | 9.7 | 0.00 | 0.00 | 0.00 | 84 | 1012.5 |
| 20260502051537 | 16 | 347 | 6.4 | 9.7 | 0.00 | 0.00 | 0.00 | 84 | 1012.4 |
| 20260502051035 | 16 | 325 | 6.4 | 8.0 | 0.00 | 0.00 | 0.00 | 84 | 1012.4 |
| 20260502050536 | 16 | 275 | 1.6 | 3.2 | 0.00 | 0.00 | 0.00 | 84 | 1012.5 |
| 20260502050036 | 16 | 320 | 0.0 | 4.8 | 0.00 | 0.00 | 0.00 | 84 | 1012.6 |
| 20260502045758 | 16 | 272 | 3.2 | 8.0 | 0.00 | 0.00 | 0.00 | 84 | 1012.6 |
| 20260502045035 | 16 | 276 | 4.8 | 8.0 | 0.00 | 0.00 | 0.00 | 84 | 1012.6 |
| 20260502044536 | 16 | 272 | 4.8 | 8.0 | 0.00 | 0.00 | 0.00 | 84 | 1012.5 |
| 20260502044036 | 16 | 317 | 3.2 | 9.7 | 0.00 | 0.00 | 0.00 | 84 | 1012.5 |
| 20260502043534 | 16 | 280 | 0.0 | 11.3 | 0.00 | 0.00 | 0.00 | 84 | 1012.5 |
| 20260502043035 | 16 | 352 | 8.0 | 11.3 | 0.00 | 0.00 | 0.00 | 84 | 1012.3 |
| 20260502042536 | 16 | 347 | 8.0 | 11.3 | 0.00 | 0.00 | 0.00 | 83 | 1012.4 |
| 20260502042036 | 16 | 345 | 8.0 | 11.3 | 0.00 | 0.00 | 0.00 | 84 | 1012.2 |
| 20260502041535 | 16 | 342 | 8.0 | 9.7 | 0.00 | 0.00 | 0.00 | 83 | 1012.2 |
| 20260502041035 | 16 | 288 | 4.8 | 9.7 | 0.00 | 0.00 | 0.00 | 83 | 1012.3 |
| 20260502040755 | 16 | 298 | 6.4 | 8.0 | 0.00 | 0.00 | 0.00 | 83 | 1012.3 |